Flag for U.S.A. Weather past 2 weeks in Lansing, Michigan, U.S.A.

Now
66 °F

Overcast.


Feels Like: 66 °F
Forecast: 58 / 72 °F
Wind: 8 mph from North

Location: Capital City Airport

Current Time: Jul 7, 2015 at 6:20:11 PM

Latest Report: Jul 7, 2015 at 4:53 PM


Visibility: 10 mi

Pressure: 29.96 "Hg

Humidity: 68%

Dew point: 55 °F

Location of LansingLocation

Historic Weather in Lansing — Graph

°F

Lansing temperature yesterday

Maximum temperature yesterday: 83 °F (at 3:53 PM)
Minimum temperature yesterday: 61 °F (at 5:53 AM)
Average temperature yesterday: 74 °F

Past Weeks' High & Low Weather Summary

 TemperatureHumidityPressure
High83 °F (Jul 6, 3:53 PM)97% (Jun 25, 11:53 PM)30.17 "Hg (Jun 25, 11:53 PM)
Low50 °F (Jul 3, 3:53 AM)38% (Jul 3, 3:53 PM)29.70 "Hg (Jun 22, 9:53 PM)
Average67 °F72%29.95 "Hg
* Reported Jun 22 3:53 PM — Jul 7 3:53 PM, Lansing, Weather by CustomWeather, © 2015

Note: Actual official high and low records may vary slightly from our data, if they occured in-between our weather recording intervals... More about our weather records

Advertising

Lansing weather history for previous 24 hours

 ConditionsComfort  
Time TempWeatherWind HumidityBarometerVisibility
3:53 PM
Tue, Jul 7
67 °FMostly cloudy.8 mph71%29.93 "Hg8 mi
2:53 PM67 °FMore clouds than sun.10 mph76%29.92 "Hg7 mi
1:53 PM64 °FMostly cloudy.8 mph90%29.91 "Hg7 mi
12:53 PM61 °FLight rain. Fog.7 mph90%29.90 "Hg6 mi
12:01 PM61 °FLight rain. Fog.8 mph93%29.90 "Hg6 mi
11:00 AM62 °FRain. Fog.14 mph93%29.88 "Hg3 mi
9:53 AM71 °FRain. Fog.8 mph93%29.83 "Hg2 mi
8:53 AM71 °FLight rain. Fog.9 mph93%29.83 "Hg5 mi
7:53 AM71 °FFog.9 mph93%29.82 "Hg6 mi
7:00 AM71 °FFog.7 mph96%29.84 "Hg3 mi
5:53 AM72 °FLight rain. Partly cloudy.5 mph91%29.82 "Hg7 mi
4:53 AM75 °FOvercast.5 mph82%29.82 "Hg6 mi
2:53 AM75 °FClear.9 mph76%29.82 "Hg7 mi
1:53 AM76 °FClear.10 mph72%29.85 "Hg6 mi
12:53 AM76 °FPassing clouds.9 mph69%29.86 "Hg6 mi
11:53 PM
Mon, Jul 6
76 °FClear.12 mph69%29.87 "Hg6 mi
10:53 PM77 °FClear.9 mph69%29.88 "Hg6 mi
9:53 PM77 °FSunny.7 mph69%29.88 "Hg6 mi
8:53 PM79 °FSunny.12 mph62%29.88 "Hg5 mi
7:53 PM80 °FSunny.12 mph60%29.89 "Hg5 mi
6:53 PM82 °FSunny.15 mph58%29.91 "Hg5 mi
Weather by CustomWeather, © 2015

See weather overviewHow to use our weather pages